Wind_Speed
60 56 55 53 48 44 44 42 40 34 34 30 24 23 24 24 21 19 17 17 18 14 15 13 10 11 11 12 20 30 36 15 23 26 29 25 24 19 23 21 20 17 20 18
59 57 51 45 42 39 38 37 34 30 30 25 18 22 22 21 23 20 16 14 15 14 14 12 9 10 12 13 15 24 32 41 30 22 29 26 25 28 28 24 25 27 26 25
59 51 44 38 38 37 34 34 30 27 26 23 22 24 24 21 21 20 17 14 13 14 12 12 14 15 12 13 15 19 23 25 35 30 30 25 20 22 21 26 27 25 27 23
50 42 38 38 38 38 34 33 30 23 26 24 22 23 24 22 19 18 20 21 19 16 11 11 16 18 16 11 17 17 17 21 23 29 29 35 34 29 26 18 22 21 26 30
42 39 36 38 39 39 34 35 31 22 25 24 22 23 23 23 22 17 19 20 23 20 17 17 16 18 13 11 17 19 19 18 18 29 33 35 34 34 31 26 23 22 27 29
39 39 39 38 41 41 38 37 33 27 27 28 23 26 25 26 26 21 21 19 23 22 18 17 17 17 7 11 14 18 21 23 23 28 36 36 31 30 24 27 31 29 29 29
38 40 40 40 42 42 40 39 32 29 32 30 28 28 26 30 28 27 25 20 24 24 17 15 15 12 7 7 13 22 21 23 26 30 42 37 36 28 24 28 29 28 31 32
41 42 44 42 43 41 40 39 39 39 38 36 32 32 29 33 33 29 26 21 24 24 21 17 17 13 10 8 14 23 22 23 17 22 42 41 36 27 22 31 30 28 29 33
43 44 44 43 43 41 40 39 39 40 36 39 37 34 34 34 32 30 23 22 24 23 22 18 18 20 20 13 14 21 22 10 2 12 29 42 35 26 24 25 24 30 35 33
43 44 42 39 39 40 39 37 40 40 36 38 37 36 35 34 33 29 28 27 26 23 21 19 19 21 26 28 28 21 17 10 15 10 8 17 35 25 35 28 22 28 32 32
41 40 38 38 38 40 40 37 37 35 35 39 40 36 35 37 33 31 30 31 27 25 19 16 15 16 20 29 34 20 16 9 7 14 9 12 22 30 30 31 29 23 23 22
42 39 36 37 35 38 40 39 37 34 37 40 37 39 39 36 35 31 31 29 27 25 18 16 16 14 16 16 17 19 17 6 6 10 12 13 12 15 36 35 34 26 31 38
42 34 32 32 33 36 37 41 41 41 39 39 42 43 40 40 36 35 34 29 25 23 20 18 21 17 16 20 19 26 21 12 10 14 22 17 13 11 9 10 21 28 26 26
38 33 35 37 37 35 38 41 44 48 42 45 45 45 45 43 40 38 33 29 24 22 24 23 22 24 21 19 22 26 28 16 19 17 21 20 20 15 8 8 10 14 16 18
37 37 41 41 37 38 36 38 42 46 48 48 44 46 44 44 41 38 34 30 25 24 25 25 25 27 23 21 25 28 27 25 21 24 24 19 15 20 24 18 17 17 16 19
40 42 43 42 41 39 36 38 41 41 41 43 46 44 44 43 41 38 33 29 28 27 26 25 26 25 25 26 29 23 30 32 28 32 32 31 28 28 26 24 24 23 21 19
45 43 44 42 42 41 36 36 44 44 44 44 49 48 45 42 39 34 35 32 29 29 29 29 26 27 27 26 35 27 25 29 35 30 32 32 27 24 23 25 25 25 24 25
46 44 42 42 44 42 40 39 45 49 48 47 45 41 41 43 34 35 37 34 31 29 32 31 29 28 30 29 32 28 31 28 27 26 26 32 36 31 32 34 30 27 25 25
50 48 44 41 44 46 43 43 46 49 49 49 42 43 47 38 36 37 36 35 33 32 32 31 27 29 33 34 34 37 40 39 34 28 29 30 33 30 30 32 32 31 29 29
53 48 44 43 45 43 37 40 43 47 47 44 46 46 45 42 39 38 38 37 36 34 32 32 29 30 36 34 35 35 37 38 37 37 38 37 35 34 33 33 31 32 32 31
56 50 45 44 45 34 35 38 40 42 42 42 42 41 40 39 40 40 38 36 35 34 34 34 30 31 32 35 36 38 35 36 36 36 38 35 39 36 33 34 33 34 35 35
57 51 45 41 43 37 36 37 39 42 42 40 40 40 39 40 39 37 35 36 37 35 36 36 33 27 31 34 36 42 37 36 35 31 34 34 34 37 35 32 35 35 35 36
57 50 41 42 40 39 39 38 40 43 40 40 40 41 38 34 32 35 37 37 38 41 43 40 34 29 35 35 34 39 47 40 37 35 32 29 32 35 37 39 41 37 35 35
55 50 42 44 40 38 37 37 35 38 44 46 41 36 31 33 36 36 35 39 42 44 42 37 35 34 40 37 33 36 42 46 44 40 36 37 37 37 36 36 38 40 40 42
53 51 46 46 40 37 37 37 39 39 39 41 38 33 32 30 31 33 37 39 38 34 37 31 34 41 42 42 38 34 40 45 48 47 47 39 44 46 46 43 45 45 45 46
59 55 54 50 53 48 43 43 41 41 38 38 38 37 32 30 31 33 28 30 31 34 39 33 30 41 45 41 46 47 43 46 49 51 53 53 52 49 50 51 51 53 51 46
Wind_Direction
285 289 293 295 291 285 285 286 284 286 283 286 286 275 279 293 301 294 268 276 273 287 292 295 288 267 255 253 215 220 220 213 228 230 224 218 218 213 223 226 220 239 240 239
283 288 288 285 281 276 279 280 279 283 279 268 278 273 277 304 318 316 277 273 273 285 292 297 297 276 259 254 243 227 226 230 232 221 230 232 234 229 231 231 256 257 247 250
282 280 279 274 272 271 273 272 274 279 275 254 260 264 274 289 311 327 295 285 279 280 297 310 301 288 270 269 262 241 228 233 236 231 229 225 238 225 231 244 246 245 240 234
272 268 267 267 268 270 267 268 265 271 257 256 264 265 274 281 298 314 303 288 288 294 302 310 312 297 287 284 274 266 247 238 236 239 238 241 240 236 235 234 231 245 250 241
258 258 260 260 264 266 265 262 260 256 243 255 271 272 269 276 283 297 306 282 289 294 306 315 316 301 299 286 286 293 282 262 237 246 246 238 248 245 244 244 246 247 241 246
251 253 255 259 260 259 258 257 256 243 250 253 264 264 265 271 278 284 296 289 283 284 290 294 306 293 283 294 294 315 292 282 262 238 237 236 231 216 223 226 227 233 237 247
252 255 257 258 256 255 254 252 247 244 250 259 264 257 263 266 273 281 288 300 294 287 289 282 288 273 242 306 323 326 311 290 271 216 222 230 219 225 218 221 227 228 241 244
254 256 255 250 250 251 249 249 245 238 240 250 256 255 258 265 270 275 282 291 297 286 285 284 280 263 240 323 324 328 314 309 283 235 214 223 228 225 220 214 227 231 242 245
257 260 258 253 250 248 244 246 243 243 246 250 249 252 253 259 265 275 278 285 293 287 281 286 272 275 240 257 320 332 320 332 343 212 226 223 230 231 221 215 217 231 237 242
263 259 255 251 248 248 245 244 241 242 240 248 248 250 253 253 261 263 277 278 284 285 278 279 270 267 260 272 279 308 307 96 89 71 11 229 235 236 226 227 233 246 242 247
257 253 251 249 247 245 245 241 238 241 243 244 245 249 249 251 257 263 277 278 282 275 279 284 267 262 263 266 273 281 272 102 31 322 279 253 221 234 228 233 245 244 248 241
251 252 255 254 252 249 244 240 237 226 236 234 241 250 247 249 257 266 279 281 279 271 273 279 261 253 248 239 260 239 232 126 299 221 210 204 184 207 227 238 243 254 255 258
251 247 252 254 248 247 244 237 230 228 233 237 250 255 246 249 257 266 277 279 272 269 270 268 268 265 246 230 248 220 208 180 231 218 216 201 197 203 213 231 243 246 242 242
238 243 254 254 250 247 247 240 231 224 231 241 247 251 247 251 257 269 278 278 272 264 262 259 260 263 251 242 240 212 206 194 224 232 209 217 227 247 214 233 251 246 243 247
241 242 251 253 252 246 244 240 236 235 235 238 244 246 249 254 259 269 282 274 271 264 257 256 259 262 261 249 218 217 215 215 203 214 217 211 226 248 259 249 239 246 254 247
240 242 248 254 252 246 242 236 236 233 231 231 237 242 246 250 259 269 274 272 270 266 257 256 261 262 254 247 209 214 219 219 218 218 231 244 247 251 250 252 253 250 254 250
244 249 251 254 250 244 240 240 230 232 230 230 233 237 243 252 260 271 272 266 263 262 260 261 257 258 253 246 213 219 226 225 234 236 237 240 235 239 240 246 248 253 255 254
243 250 253 255 246 245 243 246 236 233 235 236 238 244 249 253 262 270 271 266 262 261 261 262 261 256 250 246 230 223 234 225 228 235 237 229 235 236 252 257 250 250 256 266
244 251 255 258 244 245 247 243 240 234 238 243 246 244 251 260 260 263 265 263 259 255 258 260 265 251 250 242 237 230 235 237 236 235 229 226 241 242 244 251 255 260 264 269
246 249 251 254 245 247 245 241 236 235 237 239 241 245 252 255 257 259 260 262 259 254 260 267 266 259 243 242 234 229 227 235 239 236 236 237 236 246 243 250 256 262 270 275
244 250 250 250 242 244 239 238 236 237 240 243 243 245 247 250 253 254 258 259 255 258 260 269 268 262 242 243 234 226 225 232 239 237 236 238 235 240 250 255 258 262 264 270
242 246 248 248 239 234 239 240 239 239 241 242 244 243 246 246 250 253 253 258 261 263 267 268 268 249 239 245 234 225 224 228 234 226 235 238 241 238 245 250 256 259 267 272
239 240 244 239 231 236 235 237 242 244 246 246 246 243 242 251 251 256 259 261 263 265 267 265 256 241 232 239 228 228 226 227 221 225 226 234 237 241 245 249 253 261 265 274
233 235 237 230 231 234 233 237 244 247 248 245 242 242 241 246 253 260 266 271 271 263 257 250 237 236 227 234 238 235 230 230 228 227 233 244 247 250 249 256 258 258 261 274
229 232 230 223 228 239 241 238 239 239 242 240 233 231 237 245 254 267 275 277 268 255 238 239 238 231 228 233 235 238 237 236 236 236 234 235 244 253 259 264 267 260 262 269
222 226 227 225 234 236 239 241 245 239 234 230 225 228 233 243 257 266 276 282 265 256 238 231 238 236 230 234 240 241 243 241 239 240 242 243 242 244 249 254 261 264 262 261
Height
10931 10936 10939 10940 10937 10934 10932 10933 10932 10932 10928 10927 10927 10927 10925 10924 10924 10924 10925 10922 10917 10917 10914 10912 10911 10912 10910 10910 10912 10913 10917 10920 10922 10926 10929 10934 10938 10941 10944 10946 10948 10950 10952 10952
10924 10926 10931 10930 10928 10925 10925 10925 10926 10926 10925 10924 10924 10923 10921 10920 10919 10918 10919 10918 10915 10912 10908 10906 10905 10906 10905 10904 10906 10908 10910 10913 10917 10919 10924 10927 10931 10936 10938 10940 10943 10945 10945 10946
10918 10918 10918 10919 10919 10918 10921 10919 10920 10921 10920 10920 10921 10919 10917 10918 10916 10914 10913 10913 10910 10907 10905 10902 10901 10900 10902 10901 10901 10901 10904 10907 10911 10912 10915 10921 10925 10927 10930 10934 10936 10938 10940 10942
10908 10908 10909 10909 10910 10910 10914 10914 10916 10916 10915 10916 10916 10916 10913 10915 10914 10911 10909 10906 10904 10903 10902 10901 10898 10896 10897 10897 10896 10897 10900 10902 10906 10907 10909 10912 10917 10921 10925 10929 10931 10933 10935 10937
10897 10898 10900 10899 10901 10902 10909 10908 10910 10911 10911 10912 10913 10911 10910 10909 10910 10909 10905 10902 10900 10900 10900 10899 10897 10894 10894 10895 10894 10893 10893 10896 10899 10900 10901 10904 10907 10912 10917 10921 10925 10927 10929 10930
10886 10887 10888 10892 10892 10893 10899 10901 10904 10906 10906 10907 10908 10906 10904 10903 10903 10903 10900 10898 10897 10898 10898 10897 10895 10893 10893 10892 10891 10889 10889 10890 10893 10895 10893 10898 10901 10906 10910 10913 10917 10921 10923 10924
10875 10876 10880 10883 10882 10884 10890 10892 10897 10899 10900 10901 10902 10901 10900 10898 10897 10896 10894 10894 10893 10894 10895 10894 10891 10890 10890 10889 10888 10886 10883 10882 10884 10887 10886 10890 10895 10900 10904 10908 10911 10915 10917 10918
10863 10865 10869 10872 10871 10876 10881 10885 10888 10890 10892 10893 10895 10895 10895 10893 10891 10889 10889 10890 10890 10889 10890 10890 10889 10888 10889 10887 10886 10885 10881 10879 10876 10880 10882 10885 10891 10895 10899 10904 10906 10910 10912 10913
10851 10853 10856 10861 10863 10866 10870 10874 10878 10881 10884 10885 10888 10888 10887 10885 10886 10883 10884 10885 10883 10883 10886 10887 10886 10884 10885 10884 10884 10884 10881 10876 10874 10875 10879 10882 10887 10893 10896 10900 10903 10904 10906 10909
10842 10841 10844 10849 10852 10855 10860 10864 10869 10871 10876 10875 10879 10879 10879 10878 10879 10878 10878 10879 10879 10879 10881 10882 10882 10880 10881 10880 10881 10884 10882 10878 10877 10880 10882 10885 10888 10890 10894 10897 10899 10901 10903 10904
10828 10832 10836 10839 10843 10844 10848 10853 10858 10862 10866 10867 10869 10870 10872 10870 10871 10871 10873 10874 10874 10873 10877 10878 10876 10875 10876 10876 10877 10881 10881 10879 10879 10879 10880 10879 10883 10886 10890 10893 10895 10897 10898 10899
10817 10823 10829 10829 10835 10835 10838 10843 10848 10854 10855 10857 10859 10861 10862 10864 10863 10865 10867 10868 10867 10869 10871 10872 10870 10870 10871 10871 10873 10874 10877 10878 10880 10878 10877 10878 10879 10881 10884 10887 10889 10891 10893 10894
10808 10815 10818 10821 10824 10825 10828 10832 10838 10844 10846 10849 10850 10851 10854 10857 10857 10858 10861 10862 10862 10863 10865 10865 10864 10865 10866 10868 10869 10870 10872 10874 10877 10875 10876 10876 10877 10878 10880 10882 10885 10886 10887 10888
10799 10807 10810 10811 10812 10817 10819 10821 10827 10832 10836 10839 10841 10842 10845 10849 10851 10852 10854 10855 10856 10856 10856 10857 10857 10858 10860 10862 10864 10865 10867 10869 10873 10874 10874 10874 10876 10877 10879 10880 10881 10881 10882 10883
10794 10799 10797 10799 10804 10808 10810 10813 10817 10822 10826 10831 10836 10835 10840 10842 10845 10847 10847 10848 10849 10848 10849 10851 10852 10852 10855 10856 10858 10860 10862 10865 10867 10869 10871 10870 10872 10874 10875 10876 10876 10876 10877 10879
10784 10787 10787 10790 10794 10798 10802 10805 10808 10811 10815 10819 10822 10826 10830 10835 10839 10840 10840 10841 10840 10840 10841 10843 10844 10845 10847 10849 10852 10855 10857 10860 10861 10863 10864 10865 10866 10868 10870 10872 10873 10874 10874 10875
10773 10777 10778 10782 10784 10787 10793 10797 10800 10802 10805 10809 10811 10816 10822 10826 10830 10831 10831 10832 10833 10833 10833 10835 10838 10838 10838 10840 10844 10848 10851 10854 10855 10857 10859 10860 10860 10862 10864 10866 10868 10869 10870 10870
10762 10766 10768 10771 10773 10779 10785 10788 10790 10793 10796 10800 10807 10813 10816 10817 10821 10821 10821 10822 10824 10826 10825 10827 10829 10829 10830 10831 10835 10841 10844 10846 10848 10852 10853 10852 10854 10857 10858 10859 10861 10862 10864 10865
10750 10755 10760 10763 10764 10767 10773 10777 10778 10783 10786 10792 10801 10804 10803 10810 10811 10810 10812 10813 10814 10817 10817 10819 10821 10822 10822 10824 10827 10833 10836 10839 10843 10845 10847 10847 10846 10848 10850 10851 10853 10855 10856 10856
10738 10745 10751 10753 10754 10757 10762 10765 10768 10771 10775 10783 10789 10793 10796 10799 10799 10800 10802 10803 10804 10807 10809 10810 10812 10812 10813 10816 10819 10823 10826 10829 10833 10836 10837 10838 10838 10839 10842 10844 10845 10847 10847 10847
10728 10735 10740 10743 10745 10749 10754 10756 10760 10765 10767 10773 10777 10781 10784 10787 10788 10790 10791 10792 10795 10798 10800 10802 10804 10803 10804 10807 10811 10814 10818 10821 10824 10826 10828 10829 10831 10832 10833 10835 10836 10837 10839 10840
10718 10724 10729 10734 10737 10740 10744 10748 10753 10755 10758 10762 10766 10768 10772 10776 10778 10779 10780 10783 10787 10789 10791 10793 10794 10794 10796 10797 10800 10805 10809 10813 10815 10817 10819 10821 10823 10825 10826 10828 10827 10828 10828 10829
10704 10713 10720 10723 10729 10732 10736 10739 10743 10745 10749 10753 10756 10758 10762 10765 10767 10767 10769 10773 10777 10778 10779 10782 10783 10785 10788 10789 10792 10795 10801 10804 10807 10810 10812 10813 10815 10816 10817 10819 10820 10819 10818 10818
10692 10701 10708 10712 10719 10723 10726 10730 10733 10736 10739 10741 10744 10748 10751 10754 10756 10757 10760 10762 10763 10763 10764 10768 10772 10775 10780 10782 10784 10787 10791 10794 10799 10801 10803 10805 10807 10808 10809 10809 10810 10809 10808 10806
10684 10688 10696 10701 10708 10712 10716 10719 10721 10725 10726 10730 10734 10737 10740 10743 10747 10749 10749 10748 10746 10748 10753 10758 10762 10766 10770 10772 10774 10777 10782 10785 10788 10791 10794 10795 10797 10797 10798 10798 10798 10797 10796 10795
10668 10678 10681 10690 10696 10701 10706 10708 10711 10714 10717 10721 10724 10727 10731 10735 10738 10740 10739 10737 10737 10739 10744 10749 10752 10755 10759 10763 10765 10767 10771 10773 10776 10779 10781 10784 10784 10785 10785 10786 10785 10784 10782 10781